Flag for Trinidad and Tobago Weather past 2 weeks in Scarborough, Trinidad and Tobago

Now
73 °F

Sprinkles. Partly cloudy.


Feels Like: 72 °F
Forecast: 75 / 82 °F
Wind: 5 mph from Northeast

Location: Crown Pt./ Scarborou

Current Time: Feb 28, 2015 at 11:51:02 PM

Latest Report: Feb 28, 2015 at 11:00 PM


Visibility: 4 mi

Pressure: 29.98 "Hg

Humidity: 89%

Dew point: 70 °F

Location of ScarboroughLocation

Historic Weather in Scarborough — Graph

°F

Scarborough temperature yesterday

Maximum temperature yesterday: 84 °F (at 11:00 AM)
Minimum temperature yesterday: 75 °F (at 1:00 AM)
Average temperature yesterday: 79 °F

Past Weeks' High & Low Weather Summary

 TemperatureHumidityPressure
High88 °F (Feb 22, 1:00 PM)94% (Feb 26, 7:00 PM)30.07 "Hg (Feb 26, 7:00 PM)
Low72 °F (Feb 23, 6:00 AM)49% (Feb 23, 1:00 PM)29.89 "Hg (Feb 19, 5:00 AM)
Average79 °F73%29.97 "Hg
* Reported Feb 13 10:00 PM — Feb 28 10:00 PM, Scarborough, Weather by CustomWeather, © 2015

Note: Actual official high and low records may vary slightly from our data, if they occured in-between our weather recording intervals... More about our weather records

Advertising

Scarborough weather history for previous 24 hours

 ConditionsComfort  
Time TempWeatherWind HumidityBarometerVisibility
10:00 PM
Sat, Feb 28
73 °FSprinkles. Partly cloudy.No wind89%30.01 "HgN/A
9:00 PM77 °FPassing clouds.7 mph69%30.01 "HgN/A
8:00 PM77 °FPassing clouds.9 mph79%29.98 "HgN/A
7:00 PM77 °FPassing clouds.7 mph74%29.95 "HgN/A
6:00 PM79 °FPassing clouds.9 mph70%29.95 "HgN/A
5:00 PM81 °FPassing clouds.12 mph70%29.95 "HgN/A
3:00 PM82 °FPassing clouds.12 mph66%29.95 "HgN/A
2:00 PM81 °FPassing clouds.12 mph79%29.98 "HgN/A
12:00 PM86 °FPassing clouds.12 mph49%30.01 "HgN/A
11:00 AM79 °FPassing clouds.12 mph74%30.04 "HgN/A
10:00 AM86 °FPassing clouds.18 mph55%30.04 "HgN/A
8:00 AM81 °FPassing clouds.7 mph70%30.01 "HgN/A
7:00 AMN/ASmoke.3 mphN/AN/AN/A
6:00 AM75 °FPassing clouds.6 mph69%29.95 "HgN/A
5:00 AM75 °FPassing clouds.No wind74%29.95 "HgN/A
3:00 AM75 °FPassing clouds.8 mph74%29.95 "HgN/A
2:00 AM77 °FPassing clouds.6 mph74%29.95 "HgN/A
1:00 AM77 °FPassing clouds.12 mph79%29.95 "HgN/A
12:00 AM79 °FPassing clouds.8 mph70%29.98 "HgN/A
11:00 PM
Fri, Feb 27
79 °FPassing clouds.6 mph70%29.98 "HgN/A
Weather by CustomWeather, © 2015

See weather overviewHow to use our weather pages